Weather History for KOLY - February, 2014

Change the Weather History Date:

Sunday, February 16, 2014

  Actual Average (KEVV) Record (KEVV)
Temperature  
Mean Temperature 22 °F 37 °F  
Max Temperature 28 °F 46 °F 74 °F (1911)
Min Temperature 15 °F 27 °F -1 °F (1958)
Degree Days  
Heating Degree Days 44 28  
Month to date heating degree days 481  
Since 1 July heating degree days 3260  
Cooling Degree Days 0 0  
Month to date cooling degree days 0  
Year to date cooling degree days 0  
Moisture  
Dew Point 18 °F    
Average Humidity 78    
Maximum Humidity 100    
Minimum Humidity 68    
Precipitation  
Precipitation 0.00 in 0.11 in 1.12 in (2003)
Month to date precipitation 1.86  
Year to date precipitation 4.96  
Snow  
Snow 0.00 in 0.10 in 4.00 in (2003)
Month to date snowfall 2.4  
Since 1 July snowfall 9.3  
Snow Depth -    
Sea Level Pressure  
Sea Level Pressure 30.16 in    
Wind  
Wind Speed 4 mph (NNW)    
Max Wind Speed 15 mph    
Max Gust Speed 20 mph    
Visibility 9 miles    
Events      
T = Trace of Precipitation, MM = Missing Value Source: NWS Daily Summary

Daily Weather History Graph

Daily Weather History Graph

Search for Another Location

Airport or City:

Trip Planner

Search our weather history database for the weather conditions in past years. The results will help you decide how hot, cold, wet, or windy it might be!

Date:

Astronomy

Feb. 16, 2014 Rise Set
Actual Time 6:42 AM CST 5:31 PM CST
Civil Twilight 6:15 AM CST 5:58 PM CST
Nautical Twilight 5:44 AM CST 6:29 PM CST
Astronomical Twilight 5:13 AM CST 7:00 PM CST
Moon 7:26 PM CST (2/16) 7:13 AM CST (2/16)
Length of Visible Light 11h 43m
Length of Day
10h 49m
Full, 97% of the Moon is Illuminated
Feb 16
Full
Feb 22
Last Quarter
Mar 1
New
Mar 8
First Quarter
Mar 16
Full

Hourly Weather History & Observations

Time (CST) Temp. Windchill Dew Point Humidity Pressure Visibility Wind Dir Wind Speed Gust Speed Precip Events Conditions
12:15 AM 28.4 °F - 21.2 °F 74% 30.01 in 10.0 mi Calm Calm - N/A   Overcast
12:35 AM 28.4 °F 24.6 °F 21.2 °F 74% 30.00 in 10.0 mi SSW 3.5 mph - N/A   Overcast
12:55 AM 28.4 °F - 21.2 °F 74% 30.00 in 10.0 mi Calm Calm - N/A   Overcast
1:15 AM 28.4 °F - 21.2 °F 74% 30.00 in 10.0 mi Calm Calm - N/A   Overcast
1:35 AM 28.4 °F - 21.2 °F 74% 30.00 in 10.0 mi Calm Calm - N/A   Overcast
1:55 AM 26.6 °F - 21.2 °F 80% 30.00 in 10.0 mi Calm Calm - N/A   Mostly Cloudy
2:15 AM 26.6 °F - 21.2 °F 80% 29.99 in 10.0 mi Calm Calm - N/A   Mostly Cloudy
2:35 AM 26.6 °F - 21.2 °F 80% 29.99 in 10.0 mi Calm Calm - N/A   Overcast
2:55 AM 26.6 °F - 21.2 °F 80% 29.98 in 10.0 mi Calm Calm - N/A   Mostly Cloudy
3:15 AM 26.6 °F - 21.2 °F 80% 29.99 in 10.0 mi Calm Calm - N/A   Scattered Clouds
3:35 AM 24.8 °F - 21.2 °F 86% 29.99 in 10.0 mi Calm Calm - N/A   Mostly Cloudy
3:55 AM 26.6 °F - 21.2 °F 80% 29.98 in 10.0 mi Calm Calm - N/A   Overcast
4:15 AM 26.6 °F - 21.2 °F 80% 29.99 in 10.0 mi Calm Calm - N/A   Mostly Cloudy
4:35 AM 23.0 °F - 21.2 °F 93% 30.00 in 7.0 mi Calm Calm - N/A   Scattered Clouds
4:55 AM 23.0 °F - 19.4 °F 86% 30.01 in 7.0 mi Calm Calm - N/A   Clear
5:15 AM 21.2 °F 16.4 °F 19.4 °F 93% 30.02 in 5.0 mi WSW 3.5 mph - N/A   Clear
5:35 AM 21.2 °F - 19.4 °F 93% 30.02 in 5.0 mi Calm Calm - N/A   Clear
5:55 AM 19.4 °F - 17.6 °F 93% 30.03 in 5.0 mi Calm Calm - N/A   Clear
6:15 AM 19.4 °F - 17.6 °F 93% 30.04 in 5.0 mi Calm Calm - N/A   Scattered Clouds
6:35 AM 19.4 °F - 17.6 °F 93% 30.05 in 5.0 mi Calm Calm - N/A   Mostly Cloudy
6:55 AM 21.2 °F 13.6 °F 21.2 °F 100% 30.07 in 4.0 mi WNW 5.8 mph - N/A   Overcast
7:15 AM 24.8 °F 16.1 °F 21.2 °F 86% 30.07 in 5.0 mi NW 8.1 mph - N/A   Overcast
7:35 AM 24.8 °F 16.9 °F 21.2 °F 86% 30.08 in 7.0 mi NW 6.9 mph - N/A   Overcast
7:55 AM 26.6 °F 18.2 °F 21.2 °F 80% 30.10 in 7.0 mi NW 8.1 mph - N/A   Overcast
8:15 AM 26.6 °F 19.1 °F 21.2 °F 80% 30.11 in 7.0 mi NW 6.9 mph - N/A   Overcast
8:35 AM 28.4 °F 21.2 °F 23.0 °F 80% 30.12 in 7.0 mi NW 6.9 mph - N/A   Overcast
8:55 AM 28.4 °F 22.2 °F 23.0 °F 80% 30.14 in 7.0 mi NW 5.8 mph - N/A   Overcast
9:15 AM 28.4 °F 20.4 °F 23.0 °F 80% 30.15 in 7.0 mi NNW 8.1 mph - N/A   Overcast
9:35 AM 28.4 °F 19.1 °F 23.0 °F 80% 30.15 in 7.0 mi NNW 10.4 mph - N/A   Overcast
9:55 AM 28.4 °F 19.1 °F 21.2 °F 74% 30.17 in 7.0 mi NW 10.4 mph - N/A   Scattered Clouds
10:15 AM 28.4 °F 17.0 °F 21.2 °F 74% 30.18 in 7.0 mi NNW 15.0 mph - N/A   Scattered Clouds
10:35 AM 28.4 °F 18.0 °F 21.2 °F 74% 30.19 in 10.0 mi NNW 12.7 mph 19.6 mph N/A   Overcast
10:55 AM 28.4 °F 17.5 °F 21.2 °F 74% 30.20 in 10.0 mi NNW 13.8 mph 17.3 mph N/A   Overcast
11:15 AM 28.4 °F 17.5 °F 21.2 °F 74% 30.20 in 10.0 mi NNW 13.8 mph - N/A   Overcast
11:35 AM 28.4 °F 19.7 °F 19.4 °F 69% 30.22 in 10.0 mi NW 9.2 mph - N/A   Overcast
11:55 AM 26.6 °F 16.8 °F 19.4 °F 74% 30.22 in 7.0 mi NNW 10.4 mph - N/A   Overcast
12:15 PM 26.6 °F 15.2 °F 19.4 °F 74% 30.23 in 10.0 mi WNW 13.8 mph 17.3 mph N/A   Overcast
12:35 PM 26.6 °F 16.8 °F 19.4 °F 74% 30.23 in 10.0 mi NNW 10.4 mph - N/A   Overcast
12:55 PM 26.6 °F 15.2 °F 19.4 °F 74% 30.23 in 10.0 mi NNW 13.8 mph - N/A   Overcast
1:15 PM 26.6 °F 16.8 °F 17.6 °F 69% 30.23 in 10.0 mi NNW 10.4 mph - N/A   Overcast
1:35 PM 26.6 °F 17.5 °F 19.4 °F 74% 30.23 in 10.0 mi NW 9.2 mph 16.1 mph N/A   Overcast
1:55 PM 26.6 °F 15.7 °F 19.4 °F 74% 30.22 in 10.0 mi NNW 12.7 mph - N/A   Overcast
2:15 PM 26.6 °F 16.8 °F 17.6 °F 69% 30.21 in 10.0 mi North 10.4 mph - N/A   Overcast
2:35 PM 26.6 °F 17.5 °F 17.6 °F 69% 30.22 in 10.0 mi North 9.2 mph - N/A   Overcast
2:55 PM 26.6 °F 18.2 °F 17.6 °F 69% 30.23 in 10.0 mi North 8.1 mph - N/A   Scattered Clouds
3:15 PM 26.6 °F 19.1 °F 17.6 °F 69% 30.23 in 10.0 mi North 6.9 mph - N/A   Clear
3:35 PM 26.6 °F 17.5 °F 17.6 °F 69% 30.24 in 10.0 mi NNW 9.2 mph - N/A   Clear
3:55 PM 26.6 °F 20.0 °F 17.6 °F 69% 30.24 in 10.0 mi North 5.8 mph - N/A   Clear
4:15 PM 26.6 °F 19.1 °F 17.6 °F 69% 30.25 in 10.0 mi North 6.9 mph - N/A   Clear
4:35 PM 26.6 °F 20.0 °F 17.6 °F 69% 30.24 in 10.0 mi NNW 5.8 mph - N/A   Clear
4:55 PM 26.6 °F - 17.6 °F 69% 30.25 in 10.0 mi Calm Calm - N/A   Clear
5:15 PM 24.8 °F - 17.6 °F 74% 30.26 in 10.0 mi Calm Calm - N/A   Clear
5:35 PM 23.0 °F 15.8 °F 15.8 °F 74% 30.26 in 10.0 mi NNE 5.8 mph - N/A   Clear
5:55 PM 23.0 °F 17.0 °F 15.8 °F 74% 30.26 in 10.0 mi NE 4.6 mph - N/A   Clear
6:15 PM 23.0 °F 18.4 °F 14.0 °F 68% 30.28 in 10.0 mi NNE 3.5 mph - N/A   Clear
6:35 PM 21.2 °F - 14.0 °F 74% 30.28 in 10.0 mi Calm Calm - N/A   Clear
6:55 PM 21.2 °F - 14.0 °F 74% 30.28 in 10.0 mi Calm Calm - N/A   Clear
7:15 PM 21.2 °F - 14.0 °F 74% 30.28 in 10.0 mi Calm Calm - N/A   Clear
7:35 PM 21.2 °F 14.9 °F 14.0 °F 74% 30.27 in 10.0 mi NE 4.6 mph - N/A   Clear
7:55 PM 19.4 °F - 14.0 °F 80% 30.26 in 10.0 mi Calm Calm - N/A   Clear
8:15 PM 19.4 °F - 14.0 °F 80% 30.28 in 10.0 mi Calm Calm - N/A   Clear
8:35 PM 15.8 °F - 12.2 °F 86% 30.28 in 7.0 mi Calm Calm - N/A   Clear
8:55 PM 17.6 °F - 12.2 °F 79% 30.27 in 7.0 mi Calm Calm - N/A   Clear
9:15 PM 17.6 °F - 14.0 °F 86% 30.28 in 10.0 mi Calm Calm - N/A   Clear
9:35 PM 17.6 °F 9.3 °F 12.2 °F 79% 30.26 in 7.0 mi NE 5.8 mph - N/A   Clear
9:55 PM 17.6 °F - 14.0 °F 86% 30.27 in 7.0 mi Calm Calm - N/A   Clear
10:15 PM 17.6 °F - 14.0 °F 86% 30.26 in 7.0 mi Calm Calm - N/A   Clear
10:35 PM 19.4 °F 14.3 °F 14.0 °F 80% 30.26 in 7.0 mi ENE 3.5 mph - N/A   Clear
10:55 PM 19.4 °F 12.8 °F 14.0 °F 80% 30.26 in 7.0 mi NE 4.6 mph - N/A   Clear
11:15 PM 19.4 °F 12.8 °F 14.0 °F 80% 30.25 in 7.0 mi ENE 4.6 mph - N/A   Scattered Clouds
11:35 PM 19.4 °F 11.5 °F 15.8 °F 86% 30.23 in 7.0 mi ENE 5.8 mph - N/A   Scattered Clouds
11:55 PM 19.4 °F 11.5 °F 15.8 °F 86% 30.24 in 7.0 mi ENE 5.8 mph - N/A   Mostly Cloudy